GPS BIIF-10

Last updated on Sat Jun 27 2026 00:02:55 GMT+0000 (Coordinated Universal Time)

1 40730U 15033A 26177.19577832 -.00000036 00000+0 00000+0 0 9999 2 40730 53.9753 266.7149 0115154 30.2445 330.4598 2.00555927 80171
UTC large
Height (km)
Speed (km/s)
/
Latitude / Longitude
Inclination (degrees)
Orbital Period (minutes)
Azimuth
Elevation
Range (km)
Doppler Factor

Next 0 passes for location: London (51.5072 / 0.1276)

No passes found over London.
GPS BIIF-10